{"data":{"norad_id":67964,"intl_designator":"2026-038D","name":"STARLINK-36349","alt_names":[],"object_type":"PAYLOAD","status":"ACTIVE","operator":null,"country":"US","launch_date":"2026-02-25","launch_site_code":"AFWTR","launch_vehicle":null,"mission":null,"orbit_class":"UNKNOWN","rcs_meters":null,"size_class":null,"mass_kg":null,"dimensions":null,"purposes":["comms"],"wikipedia_slug":null,"has_3d_model":false,"image_url":null,"decayed_at":null,"tle_current":{"epoch":"2026-09-19T22:30:05.917536Z","epoch_age_seconds":111813,"freshness":"FRESH","line1":"1 67964U 26038D   26262.93756849  .00018614  00000+0  57716-3 0  9998","line2":"2 67964  97.2853 271.2297 0001755  91.6745 268.4699 15.33461456 33006","mean_motion":15.33461456,"eccentricity":0.0001755,"inclination_deg":97.2853,"raan_deg":271.2297,"arg_perigee_deg":91.6745,"mean_anomaly_deg":268.4699,"bstar":0.00057716,"rev_number":3300,"period_min":93.905196923319,"perigee_km":464.2931561598,"apogee_km":466.69527071572,"semimajor_km":6843.6312134378,"source":"CELESTRAK","updated_at":"2026-09-20T09:00:43.713801Z"}}}